Regional Weather Roundup
Issued by NWS Jackson, KY

Home | Current Version | Previous Version | Text Only | Print | Product List | Glossary On
Versions: 1 2 3 4 5 6 7 8 9 10 11 12 13 14 15 16 17 18 19 20 21 22 23 24 25 26 27 28 29 30 31 32 33 34 35 36 37 38 39 40 41 42 43 44 45 46 47 48 49 50
000
ASUS43 KJKL 281111
RWRJKL

EAST KENTUCKY HOURLY WEATHER ROUNDUP
NATIONAL WEATHER SERVICE JACKSON KY
600 AM EST SUN DEC 28 2014

NOTE: "FAIR" INDICATES FEW OR NO CLOUDS BELOW 12,000 FEET WITH
NO SIGNIFICANT WEATHER AND/OR OBSTRUCTIONS TO VISIBILITY.

* THESE REPORTS ARE NOT UNDER NWS QUALITY CONTROL AND MAY NOT
  REPORT WEATHER SUCH AS PRECIPITATION AND FOG.

KYZ079-080-083-085-087-088-110-112-115-119-120-281200
...EASTERN KENTUCKY...

CITY           SKY/WX    TMP DP  RH WIND       PRES   REMARKS
JACKSON        LGT RAIN  46  44  93 VRB5      30.03S VSB 1/4
LONDON         LGT RAIN  47  43  86 CALM      30.04F FOG
SOMERSET*      RAIN      45  45 100 CALM      30.06S
MONTICELLO*    CLOUDY    48  48 100 CALM      30.09R FOG
MIDDLESBORO*   CLOUDY    47  47 100 CALM      30.06R FOG
HARLAN APT*    CLOUDY    45  45 100 CALM      30.03S
HAZARD APT*    FOG       46  46 100 CALM      30.04  VSB 3/4
BLACK MTN*       N/A     46  46 100 SW6         N/A
PIKEVILLE APT* DRIZZLE   45  45 100 CALM      30.04R
BIG SANDY*     DRIZZLE   46  46  99 SW3       30.04R
MOREHEAD APT*  LGT RAIN  46  46 100 W5        30.06R
$$

KYZ035-036-041-042-044-050-067-078-099-281200
...CENTRAL KENTUCKY...

CITY           SKY/WX    TMP DP  RH WIND       PRES   REMARKS
MT STERLING*   CLOUDY    46  46 100 NW5       30.05F
FLEMING/MASON* RAIN      43  41  93 N10       30.06R
DANVILLE*      CLOUDY    45  45 100 NW6       30.05F
RICHMOND*      CLOUDY    46  45  93 CALM      30.04S
LEXINGTON      LGT RAIN  40  40 100 N15       30.05R FOG     WCI  32
FRANKFORT      CLOUDY    40  38  93 N10       30.07S FOG     WCI  33
$$

KYZ091>093-OHZ055-061-077-WVZ005-015-034-035-042-281200
...SOUTHERN OHIO/WEST VIRGINIA...

CITY           SKY/WX    TMP DP  RH WIND       PRES   REMARKS
COVINGTON      CLOUDY    37  32  82 N8        30.09R WCI  31
COLUMBUS       LGT RAIN  37  37 100 NW12      30.05R FOG     WCI  29
DAYTON         LGT SNOW  35  33  92 NW10      30.09R FOG     WCI  27
WILMINGTON     CLOUDY    36  33  89 NW13      30.06R FOG     WCI  27
HUNTINGTON     LGT RAIN  48  46  93 SW5       30.03R
CHARLESTON     CLOUDY    49  44  83 W6        30.02R
PINEVILLE*     CLOUDY    46  46 100 MISG      30.08S FOG
BECKLEY        CLOUDY    44  40  85 SW5       30.02S FOG
BLUEFIELD      CLOUDY    48  35  60 SW9       30.03F
$$

VAZ002-007-008-TNZ017-027-036-066-071-281200
...SOUTHWEST VIRGINIA/EAST TENNESSEE...

CITY           SKY/WX    TMP DP  RH WIND       PRES   REMARKS
WISE*          LGT RAIN  48  48 100 SW9       30.04R
JONESVILLE*    LGT RAIN  45  45 100 CALM      30.07S
ABINGDON*      CLOUDY    47  38  68 CALM      30.06R
BRISTOL        CLOUDY    47  41  80 CALM      30.06R
KNOXVILLE      DRIZZLE   48  44  86 SE5       30.06R
OAK RIDGE      CLOUDY    52  50  93 W8        30.06S
CROSSVILLE     CLOUDY    50  48  93 CALM      30.04F FOG
NASHVILLE      CLOUDY    49  47  93 NW12      30.08R
$$

...KEY TO REMARKS...
VSB - VISIBILITY IN MILES
WCI - WIND CHILL INDEX
HX  - HEAT INDEX

$$


USA.gov is the U.S. government's official web portal to all federal, state and local government web resources and services.